Regional Weather Roundup
Issued by NWS

Home | Current Version | Previous Version | Text Only | Print | Product List | Glossary Off
Versions: 1 2 3 4 5 6 7 8 9 10 11 12 13 14 15 16 17 18 19 20 21 22 23 24 25 26 27 28 29 30 31 32 33 34 35 36 37 38 39 40 41 42 43 44 45 46 47 48 49 50

895
ASUS45 KPSR 211610
RWRAZ

ARIZONA HOURLY REGIONAL WEATHER ROUNDUP
NATIONAL WEATHER SERVICE PHOENIX AZ
900 AM MST SAT JAN 21 2017

NOTE: FAIR INDICATES FEW OR NO CLOUDS BELOW 12,000 FEET WITH NO
SIGNIFICANT WEATHER AND/OR OBSTRUCTIONS TO VISIBILITY.

AZZ001>003-036-211700-
NORTHWEST ARIZONA

CITY           SKY/WX    TMP DP  RH WIND       PRES   REMARKS
BULLHEAD CITY  MOSUNNY   50  34  53 S10       29.67R
KINGMAN        SUNNY     39  27  62 SW17      29.62R WCI  30
$$

AZZ004>008-015-016-018-211700-
NORTH CENTRAL ARIZONA

CITY           SKY/WX    TMP DP  RH WIND       PRES   REMARKS
GRAND CANYON   CLOUDY    25  24  96 SW13      29.52R WCI  14
WILLIAMS       FLURRIES  27  23  86 W20G29    29.54R WCI  13
PRESCOTT       SNOW      31  30  96 W8        29.59R VSB 1/2 WCI  23
FLAGSTAFF      LGT SNOW  24  20  84 SW14      29.53R FOG     WCI  12
PAYSON         SNOW      32  30  93 W10G26    29.62R VSB 1/4 WCI  24
PAGE           CLOUDY    39  29  67 CALM      29.44R
$$

AZZ009>014-017-211700-
NORTHEAST ARIZONA

CITY           SKY/WX    TMP DP  RH WIND       PRES   REMARKS
WINSLOW        PTSUNNY   33  31  92 SW16      29.55R WCI  23
SAINT JOHNS    CLOUDY    32  30  92 W12       29.53R WCI  23
SHOW LOW       MOSUNNY   27  23  86 SW17      29.55R WCI  14
$$

AZZ023-211700-
GREATER PHOENIX AREA

CITY           SKY/WX    TMP DP  RH WIND       PRES   REMARKS
PHOENIX        MOSUNNY   50  39  66 SW15G22   29.68R
BUCKEYE        SUNNY     48  45  87 SW10      29.72R
GLENDALE       MOSUNNY   50  45  81 MISG      29.70R
LUKE AFB       SUNNY     49  43  79 SW13      29.69R
DEER VALLEY    SUNNY     48  42  80 SW16      29.68R
SCOTTSDALE     MOSUNNY   49  39  68 W15G22    29.70R
MESA-FALCON    PTSUNNY  N/A N/A N/A SW14G23   29.66R
MESA-GATEWAY   MOSUNNY   48  39  71 W15       29.71R
CHANDLER       MOSUNNY   52  39  62 SW17G29   29.70R
$$

AZZ027-028-211700-
SOUTHWEST MARICOPA COUNTY AND PINAL COUNTY

CITY           SKY/WX    TMP DP  RH WIND       PRES   REMARKS
CASA GRANDE    PTSUNNY   50  39  66 W15       29.72R
$$

AZZ503-504-507>509-211700-
SOUTHEAST ARIZONA

CITY           SKY/WX    TMP DP  RH WIND       PRES   REMARKS
TUCSON         CLOUDY    50  36  58 W9        29.75R
DAVIS-MONTHAN  MOSUNNY   48  36  61 W14G22    29.73R
RYAN FIELD     MOSUNNY   50  37  62 SW18G26   29.74
NOGALES        PTSUNNY   43  36  76 SW9       29.77R
SIERRA VISTA   PTSUNNY   40  34  78 W20G28    29.73R WCI  31
DOUGLAS        LGT RAIN  40  37  89 SW17G29   29.74R WCI  31
SAFFORD        PTSUNNY   45  37  73 NW22G31   29.62R
$$

AZZ020-021-025-026-031-211700-
SOUTHWEST ARIZONA

CITY           SKY/WX    TMP DP  RH WIND       PRES   REMARKS
YUMA           SUNNY     52  41  66 W13       29.77R
$$

CAZ031-033-041-043-047-048-061-211700-
SOUTHERN CALIFORNIA

CITY           SKY/WX    TMP DP  RH WIND       PRES   REMARKS
DOWNTOWN L.A.  SUNNY     49  41  74 CALM      29.83R
L.A. AIRPORT   MOSUNNY   53  42  66 W10G21    29.84R
SAN DIEGO      PTSUNNY   56  43  61 W13G21    29.88R
BURBANK        SUNNY     44  37  76 NW3       29.84R
ONTARIO        MOSUNNY   45  41  86 NW6       29.81R
RIVERSIDE      MOSUNNY   46  42  86 CALM      29.82R
PALM SPRINGS   SUNNY     53  36  52 W13G24    29.74R
EL CENTRO NAS  LGT RAIN  54  38  54 W24       29.80R
IMPERIAL       SUNNY     55  37  50 SW18G25   29.79R
BLYTHE         SUNNY     51  40  65 SW6       29.73R
NEEDLES        MOSUNNY   53  32  44 W16       29.68R
$$

NVZ020-UTZ003-211700-
SOUTHERN NEVADA-UTAH

CITY           SKY/WX    TMP DP  RH WIND       PRES   REMARKS
LAS VEGAS      MOSUNNY   45  30  55 SW7       29.60R
SALT LAKE CITY SNOW      32  31  96 NW8       29.42R VSB 1/2 WCI  25
$$

NMZ009-TXZ055-211700-
NEW MEXICO-WEST TEXAS

CITY           SKY/WX    TMP DP  RH WIND       PRES   REMARKS
ALBUQUERQUE    CLOUDY    33  31  92 E12       29.50R WCI  24
EL PASO        LGT RAIN  43  35  73 W18G35    29.64R
$$


........................KEY........................
SKY/WX - SKY CONDITION/WEATHER
TMP    - TEMPERATURE IN FAHRENHEIT
DP     - DEW POINT IN FAHRENHEIT
RH     - RELATIVE HUMIDITY IN PERCENT
WIND   - DIRECTION AND SPEED IN MILES PER HOUR (MPH)
VRB    - VARIABLE WIND DIRECTION
PRES   - MEAN SEA LEVEL PRESSURE IN INCHES OF MERCURY
         F - FALLING PRESSURE   R - RISING PRESSURE
         S - STEADY PRESSURE
VSB    - VISIBILITY IN MILES
HX     - HEAT INDEX IN FAHRENHEIT
WCI    - WIND CHILL INDEX IN FAHRENHEIT
TC     - TEMPERATURE IN CELSIUS WHICH IS ALSO KNOWN AS
         TEMPERATURE IN CENTIGRADE
AFB    - AIR FORCE BASE
         LUKE AFB IS LUKE AIR FORCE BASE
         DAVIS-MONTHAN IS DAVIS-MONTHAN AIR FORCE BASE
NAS    - NAVAL AIR STATION
         EL CENTRO NAS IS EL CENTRO NAVAL AIR STATION
N/A    - NOT AVAILABLE





USA.gov is the U.S. government's official web portal to all federal, state and local government web resources and services.